Location: Makanda
(37.6176°N, 89.2090°W)
Time: 02:49:49
(UTC+00:00)

CZ-2C R/B - Pass Details

Date: 23 September 2019
Orbit: 669 x 784 km, 98.1° (Epoch: 19 October)

Event Time Altitude Azimuth Distance (km) Brightness Sun altitude
Rises 09:37:12 0° 24° (NNE) 3,177 6.4 -25.6°
Reaches altitude 10° 09:39:44 10° 35° (NE) 2,268 5.7 -25.1°
Maximum altitude 09:44:08 30° 97° (E) 1,328 4.2 -24.3°
Drops below altitude 10° 09:48:36 10° 158° (SSE) 2,308 5.0 -23.5°
Sets 09:51:10 0° 169° (SSE) 3,241 5.7 -23.0°
